| time (UTC) | temp F | wind direction | speed MPH | gust MPH | rain 1hr in | rain 24hr in | rain mn in | humidity % | barometer mb |
| 20260508035436 | 70 | 89 | 0.0 | 3.0 | 0.00 | 0.00 | 0.00 | 65 | 1013.0 |
| 20260508034416 | 70 | 332 | 0.0 | 3.0 | 0.00 | 0.00 | 0.00 | 65 | 1013.1 |
| 20260508033404 | 70 | 302 | 0.0 | 5.0 | 0.00 | 0.00 | 0.00 | 65 | 1013.0 |
| 20260508032357 | 70 | 341 | 0.0 | 6.0 | 0.00 | 0.00 | 0.00 | 66 | 1013.3 |
| 20260508030233 | 70 | 209 | 0.0 | 2.0 | 0.00 | 0.00 | 0.00 | 65 | 1013.4 |
| 20260508025223 | 71 | 226 | 0.0 | 2.0 | 0.00 | 0.00 | 0.00 | 65 | 1013.6 |
| 20260508024235 | 71 | 5 | 0.0 | 0.0 | 0.00 | 0.00 | 0.00 | 65 | 1013.8 |
| 20260508023205 | 71 | 5 | 0.0 | 0.0 | 0.00 | 0.00 | 0.00 | 65 | 1013.7 |
| 20260508022204 | 71 | 10 | 0.0 | 3.0 | 0.00 | 0.00 | 0.00 | 65 | 1013.4 |
| 20260508021150 | 71 | 19 | 0.0 | 2.0 | 0.00 | 0.00 | 0.00 | 65 | 1013.5 |
| 20260508020132 | 72 | 19 | 0.0 | 1.0 | 0.00 | 0.00 | 0.00 | 65 | 1013.6 |
| 20260508015131 | 72 | 19 | 0.0 | 1.0 | 0.00 | 0.00 | 0.00 | 65 | 1013.5 |
| 20260508014110 | 72 | 19 | 0.0 | 0.0 | 0.00 | 0.00 | 0.00 | 65 | 1013.4 |
| 20260508013116 | 72 | 19 | 0.0 | 2.0 | 0.00 | 0.00 | 0.00 | 65 | 1013.5 |
| 20260508012129 | 73 | 19 | 0.0 | 0.0 | 0.00 | 0.00 | 0.00 | 65 | 1013.5 |
| 20260508011114 | 73 | 19 | 0.0 | 2.0 | 0.00 | 0.00 | 0.00 | 65 | 1013.3 |
| 20260508010047 | 73 | 33 | 0.0 | 1.0 | 0.00 | 0.00 | 0.00 | 65 | 1013.2 |
| 20260508000545 | 75 | 336 | 0.0 | 2.0 | 0.00 | 0.00 | 0.00 | 64 | 1013.3 |
| 20260507235607 | 75 | 252 | 0.0 | 0.0 | 0.00 | 0.00 | 0.00 | 64 | 1013.3 |
| 20260507234607 | 76 | 251 | 1.0 | 6.0 | 0.00 | 0.00 | 0.00 | 63 | 1013.5 |
| 20260507233609 | 76 | 305 | 0.0 | 4.0 | 0.00 | 0.00 | 0.00 | 63 | 1013.5 |
| 20260507232551 | 77 | 234 | 0.0 | 4.0 | 0.00 | 0.00 | 0.00 | 63 | 1013.4 |
| 20260507230335 | 77 | 355 | 0.0 | 5.0 | 0.00 | 0.00 | 0.00 | 64 | 1013.2 |
| 20260507225348 | 77 | 349 | 0.0 | 5.0 | 0.00 | 0.00 | 0.00 | 63 | 1013.2 |
| 20260507224349 | 77 | 282 | 0.0 | 3.0 | 0.00 | 0.00 | 0.00 | 62 | 1012.9 |
| 20260507223409 | 77 | 331 | 1.0 | 3.0 | 0.00 | 0.00 | 0.00 | 62 | 1012.7 |
| 20260507222354 | 77 | 340 | 0.0 | 3.0 | 0.00 | 0.00 | 0.00 | 64 | 1012.8 |
| 20260507221323 | 77 | 331 | 0.0 | 3.0 | 0.00 | 0.00 | 0.00 | 64 | 1012.8 |
| 20260507220306 | 77 | 317 | 0.0 | 4.0 | 0.00 | 0.00 | 0.00 | 63 | 1013.0 |
| 20260507215235 | 78 | 18 | 0.0 | 4.0 | 0.00 | 0.00 | 0.00 | 63 | 1013.1 |
| 20260507214249 | 78 | 88 | 0.0 | 4.0 | 0.00 | 0.00 | 0.00 | 63 | 1013.1 |
| 20260507213233 | 78 | 161 | 1.0 | 4.0 | 0.00 | 0.00 | 0.00 | 62 | 1013.0 |
| 20260507212221 | 78 | 192 | 0.0 | 5.0 | 0.00 | 0.00 | 0.00 | 64 | 1013.0 |
| 20260507211230 | 78 | 314 | 0.0 | 5.0 | 0.00 | 0.00 | 0.00 | 63 | 1013.3 |
| 20260507205145 | 79 | 328 | 0.0 | 7.0 | 0.00 | 0.00 | 0.00 | 63 | 1013.4 |
| 20260507204137 | 79 | 323 | 1.0 | 6.0 | 0.00 | 0.00 | 0.00 | 63 | 1013.5 |
| 20260507203119 | 79 | 5 | 0.0 | 5.0 | 0.00 | 0.00 | 0.00 | 62 | 1013.5 |
| 20260507202133 | 79 | 5 | 0.0 | 3.0 | 0.00 | 0.00 | 0.00 | 62 | 1013.6 |
| 20260507201126 | 79 | 327 | 0.0 | 3.0 | 0.00 | 0.00 | 0.00 | 63 | 1013.9 |
| 20260507200107 | 79 | 202 | 0.0 | 5.0 | 0.00 | 0.00 | 0.00 | 63 | 1013.7 |
| 20260507195112 | 79 | 355 | 1.0 | 5.0 | 0.00 | 0.00 | 0.00 | 62 | 1014.3 |
| 20260507192939 | 78 | 127 | 0.0 | 5.0 | 0.00 | 0.00 | 0.00 | 63 | 1014.0 |
| 20260507185640 | 76 | 140 | 1.0 | 4.0 | 0.00 | 0.00 | 0.00 | 65 | 1015.1 |
| 20260507184704 | 76 | 118 | 0.0 | 3.0 | 0.00 | 0.00 | 0.00 | 65 | 1015.0 |
| 20260507183726 | 76 | 317 | 0.0 | 3.0 | 0.00 | 0.00 | 0.00 | 65 | 1015.2 |
| 20260507182717 | 75 | 66 | 0.0 | 9.0 | 0.00 | 0.00 | 0.00 | 65 | 1015.2 |
| 20260507181737 | 75 | 350 | 1.0 | 9.0 | 0.00 | 0.00 | 0.00 | 65 | 1015.3 |
| 20260507175529 | 74 | 324 | 0.0 | 7.0 | 0.00 | 0.20 | 0.00 | 63 | 1015.6 |
| 20260507172307 | 71 | 198 | 0.0 | 3.0 | 0.00 | 0.24 | 0.00 | 63 | 1016.3 |
| 20260507171233 | 70 | 252 | 1.0 | 4.0 | 0.00 | 0.24 | 0.00 | 63 | 1016.1 |
| 20260507170213 | 70 | 5 | 0.0 | 5.0 | 0.00 | 0.24 | 0.00 | 62 | 1016.1 |
| 20260507165228 | 69 | 271 | 1.0 | 7.0 | 0.00 | 0.24 | 0.00 | 61 | 1016.1 |
| 20260507164209 | 69 | 329 | 1.0 | 7.0 | 0.00 | 0.24 | 0.00 | 60 | 1016.1 |
| 20260507163207 | 68 | 350 | 1.0 | 5.0 | 0.00 | 0.24 | 0.00 | 58 | 1015.8 |
| 20260507162211 | 68 | 350 | 1.0 | 7.0 | 0.00 | 0.24 | 0.00 | 57 | 1015.7 |
| 20260507161143 | 67 | 338 | 1.0 | 11.0 | 0.00 | 0.24 | 0.00 | 54 | 1015.7 |
| 20260507160117 | 67 | 325 | 1.0 | 11.0 | 0.00 | 0.24 | 0.00 | 50 | 1015.4 |
| 20260507155133 | 66 | 24 | 1.0 | 8.0 | 0.00 | 0.24 | 0.00 | 49 | 1015.4 |
| 20260507154119 | 66 | 340 | 1.0 | 7.0 | 0.00 | 0.24 | 0.00 | 48 | 1015.7 |
| 20260507151917 | 65 | 187 | 0.0 | 5.0 | 0.00 | 0.24 | 0.00 | 39 | 1015.9 |
| 20260507150847 | 64 | 76 | 1.0 | 7.0 | 0.00 | 0.24 | 0.00 | 37 | 1015.7 |
| 20260507145829 | 64 | 254 | 2.0 | 7.0 | 0.00 | 0.24 | 0.00 | 37 | 1015.4 |
| 20260507144802 | 63 | 200 | 1.0 | 9.0 | 0.00 | 0.24 | 0.00 | 35 | 1015.6 |
| 20260507143822 | 63 | 214 | 1.0 | 9.0 | 0.00 | 0.24 | 0.00 | 34 | 1015.8 |
| 20260507142833 | 63 | 76 | 1.0 | 7.0 | 0.00 | 0.24 | 0.00 | 32 | 1015.8 |
| 20260507141830 | 63 | 221 | 1.0 | 11.0 | 0.00 | 0.24 | 0.00 | 30 | 1015.7 |
| 20260507140825 | 63 | 202 | 1.0 | 11.0 | 0.00 | 0.24 | 0.00 | 29 | 1015.7 |
| 20260507135834 | 63 | 0 | 1.0 | 11.0 | 0.00 | 0.24 | 0.00 | 27 | 1015.8 |
| 20260507134823 | 63 | 317 | 1.0 | 7.0 | 0.00 | 0.24 | 0.00 | 26 | 1015.9 |
| 20260507133816 | 63 | 231 | 0.0 | 7.0 | 0.00 | 0.24 | 0.00 | 26 | 1015.9 |
| 20260507132830 | 63 | 113 | 0.0 | 7.0 | 0.00 | 0.24 | 0.00 | 26 | 1015.8 |
| 20260507130643 | 63 | 92 | 0.0 | 7.0 | 0.00 | 0.24 | 0.00 | 27 | 1015.9 |
| 20260507125704 | 63 | 65 | 0.0 | 3.0 | 0.00 | 0.24 | 0.00 | 26 | 1016.2 |
| 20260507124654 | 63 | 156 | 0.0 | 3.0 | 0.00 | 0.24 | 0.00 | 24 | 1016.0 |
| 20260507123655 | 63 | 277 | 0.0 | 3.0 | 0.00 | 0.24 | 0.00 | 23 | 1015.8 |
| 20260507122711 | 64 | 281 | 0.0 | 6.0 | 0.00 | 0.24 | 0.00 | 23 | 1015.2 |
| 20260507121654 | 64 | 185 | 0.0 | 6.0 | 0.00 | 0.24 | 0.00 | 22 | 1014.6 |
| 20260507120626 | 64 | 24 | 0.0 | 4.0 | 0.00 | 0.24 | 0.00 | 22 | 1014.6 |
| 20260507115634 | 64 | 338 | 0.0 | 4.0 | 0.00 | 0.24 | 0.00 | 23 | 1014.4 |
| 20260507113556 | 64 | 120 | 0.0 | 9.0 | 0.00 | 0.24 | 0.00 | 24 | 1014.7 |
| 20260507112528 | 64 | 216 | 0.0 | 4.0 | 0.00 | 0.24 | 0.00 | 24 | 1013.9 |
| 20260507111456 | 65 | 42 | 0.0 | 5.0 | 0.00 | 0.24 | 0.00 | 23 | 1014.0 |
| 20260507110503 | 65 | 162 | 0.0 | 5.0 | 0.00 | 0.24 | 0.00 | 23 | 1014.0 |
| 20260507104427 | 65 | 302 | 0.0 | 3.0 | 0.00 | 0.24 | 0.00 | 24 | 1013.5 |
| 20260507103428 | 65 | 350 | 0.0 | 3.0 | 0.00 | 0.24 | 0.00 | 24 | 1013.5 |
| 20260507101233 | 65 | 290 | 0.0 | 7.0 | 0.00 | 0.24 | 0.00 | 24 | 1013.2 |
| 20260507100201 | 66 | 350 | 0.0 | 3.0 | 0.00 | 0.24 | 0.00 | 24 | 1013.1 |
| 20260507095145 | 66 | 328 | 0.0 | 7.0 | 0.00 | 0.24 | 0.00 | 23 | 1012.8 |
| 20260507094136 | 66 | 324 | 0.0 | 5.0 | 0.00 | 0.24 | 0.00 | 22 | 1012.7 |
| 20260507093146 | 66 | 82 | 0.0 | 3.0 | 0.00 | 0.24 | 0.00 | 22 | 1012.5 |
| 20260507085841 | 66 | 355 | 0.0 | 3.0 | 0.00 | 0.24 | 0.00 | 24 | 1012.7 |
| 20260507084902 | 66 | 319 | 0.0 | 5.0 | 0.00 | 0.24 | 0.00 | 25 | 1012.6 |
| 20260507083916 | 66 | 319 | 1.0 | 5.0 | 0.00 | 0.24 | 0.00 | 26 | 1012.3 |
| 20260507080604 | 67 | 252 | 1.0 | 5.0 | 0.00 | 0.24 | 0.00 | 28 | 1013.0 |
| 20260507075550 | 67 | 350 | 0.0 | 3.0 | 0.00 | 0.24 | 0.00 | 29 | 1012.8 |
| 20260507074549 | 67 | 325 | 0.0 | 5.0 | 0.00 | 0.24 | 0.00 | 29 | 1012.8 |
| 20260507073527 | 67 | 28 | 1.0 | 5.0 | 0.00 | 0.24 | 0.00 | 30 | 1013.0 |
| 20260507071436 | 67 | 336 | 0.0 | 4.0 | 0.00 | 0.24 | 0.00 | 32 | 1012.9 |
| 20260507064125 | 67 | 329 | 0.0 | 3.0 | 0.00 | 0.24 | 0.00 | 33 | 1013.2 |
| 20260507062024 | 67 | 193 | 0.0 | 4.0 | 0.00 | 0.24 | 0.00 | 35 | 1013.2 |
| 20260507061018 | 67 | 226 | 0.0 | 3.0 | 0.00 | 0.24 | 0.00 | 35 | 1013.0 |
| 20260507060025 | 67 | 9 | 0.0 | 2.0 | 0.00 | 0.24 | 0.00 | 36 | 1012.7 |
| 20260507054957 | 68 | 228 | 0.0 | 4.0 | 0.00 | 0.24 | 0.00 | 36 | 1013.1 |
| 20260507053954 | 68 | 281 | 0.0 | 4.0 | 0.00 | 0.24 | 0.00 | 37 | 1013.0 |
| 20260507052930 | 68 | 146 | 0.0 | 6.0 | 0.00 | 0.24 | 0.00 | 37 | 1012.8 |
| 20260507051858 | 68 | 226 | 0.0 | 6.0 | 0.00 | 0.24 | 0.00 | 37 | 1012.8 |
| 20260507050916 | 68 | 257 | 0.0 | 4.0 | 0.00 | 0.24 | 0.00 | 38 | 1012.9 |
| 20260507045932 | 68 | 236 | 0.0 | 3.0 | 0.00 | 0.24 | 0.24 | 39 | 1012.8 |
| 20260507044910 | 68 | 271 | 1.0 | 7.0 | 0.00 | 0.24 | 0.24 | 40 | 1012.9 |
| 20260507043935 | 68 | 221 | 0.0 | 7.0 | 0.00 | 0.24 | 0.24 | 41 | 1012.7 |